Time,TemperatureF,DewpointF,PressureIn,WindDirection,WindDirectionDegrees,WindSpeedMPH,WindSpeedGustMPH,Humidity,HourlyPrecipIn,Conditions,Clouds,dailyrainin,SoftwareType,DateUTC
2013-11-12 00:29:00,36.5,33.9,30.43,NNE,22,9.9,-999.0,90,-99.99,,,0.00,Acu-Link.com,2013-11-12 06:29:00,
2013-11-12 05:56:00,25.5,19.9,30.63,NNE,22,6.8,-999.0,79,-99.99,,,0.00,Acu-Link.com,2013-11-12 11:56:00,
2013-11-12 07:50:00,25.5,19.0,30.68,NE,45,9.4,-999.0,76,-99.99,,,0.00,Acu-Link.com,2013-11-12 13:50:00,
2013-11-12 08:05:00,26.1,19.0,30.69,NNE,22,5.8,-999.0,74,-99.99,,,0.00,Acu-Link.com,2013-11-12 14:05:00,
2013-11-12 08:20:00,27.0,19.5,30.69,NNE,22,7.3,-999.0,73,-99.99,,,0.00,Acu-Link.com,2013-11-12 14:20:00,
2013-11-12 08:36:00,27.5,19.4,30.70,NE,45,13.0,-999.0,71,-99.99,,,0.00,Acu-Link.com,2013-11-12 14:36:00,
2013-11-12 08:51:00,27.0,19.2,30.71,NNW,337,8.9,-999.0,72,-99.99,,,0.00,Acu-Link.com,2013-11-12 14:51:00,
2013-11-12 09:06:00,28.2,19.0,30.71,North,0,7.8,-999.0,68,-99.99,,,0.00,Acu-Link.com,2013-11-12 15:06:00,
2013-11-12 09:21:00,29.5,19.9,30.71,NNE,22,5.3,-999.0,67,-99.99,,,0.00,Acu-Link.com,2013-11-12 15:21:00,
2013-11-12 09:36:00,30.4,19.7,30.72,NW,315,4.7,-999.0,64,-99.99,,,0.00,Acu-Link.com,2013-11-12 15:36:00,
2013-11-12 09:51:00,30.9,19.8,30.71,North,0,7.3,-999.0,63,-99.99,,,0.00,Acu-Link.com,2013-11-12 15:51:00,
2013-11-12 10:06:00,31.6,20.1,30.72,NE,45,3.7,-999.0,62,-99.99,,,0.00,Acu-Link.com,2013-11-12 16:06:00,
2013-11-12 10:21:00,32.7,20.4,30.72,ENE,67,4.2,-999.0,60,-99.99,,,0.00,Acu-Link.com,2013-11-12 16:21:00,
2013-11-12 10:37:00,32.4,19.7,30.72,NNW,337,5.3,-999.0,59,-99.99,,,0.00,Acu-Link.com,2013-11-12 16:37:00,
2013-11-12 10:52:00,33.4,19.4,30.71,NNE,22,7.3,-999.0,56,-99.99,,,0.00,Acu-Link.com,2013-11-12 16:52:00,
2013-11-12 11:07:00,35.1,19.3,30.71,NW,315,6.3,-999.0,52,-99.99,,,0.00,Acu-Link.com,2013-11-12 17:07:00,
2013-11-12 11:22:00,36.1,18.3,30.70,NE,45,7.8,-999.0,48,-99.99,,,0.00,Acu-Link.com,2013-11-12 17:22:00,
2013-11-12 11:49:00,35.6,19.3,30.70,North,0,3.2,-999.0,51,-99.99,,,0.00,Acu-Link.com,2013-11-12 17:49:00,
2013-11-12 12:19:00,37.8,17.9,30.69,NE,45,7.3,-999.0,44,-99.99,,,0.00,Acu-Link.com,2013-11-12 18:19:00,
2013-11-12 12:37:00,37.0,16.6,30.68,NE,45,7.3,-999.0,43,-99.99,,,0.00,Acu-Link.com,2013-11-12 18:37:00,
2013-11-12 14:21:00,40.5,16.3,30.65,NW,315,6.8,-999.0,37,-99.99,,,0.00,Acu-Link.com,2013-11-12 20:21:00,
2013-11-12 14:36:00,38.8,16.0,30.65,NNE,22,4.2,-999.0,39,-99.99,,,0.00,Acu-Link.com,2013-11-12 20:36:00,
2013-11-12 14:52:00,39.7,16.2,30.64,NW,315,4.2,-999.0,38,-99.99,,,0.00,Acu-Link.com,2013-11-12 20:52:00,
2013-11-12 15:07:00,40.5,16.3,30.65,NNW,337,3.7,-999.0,37,-99.99,,,0.00,Acu-Link.com,2013-11-12 21:07:00,
2013-11-12 15:22:00,39.2,15.1,30.65,NE,45,4.7,-999.0,37,-99.99,,,0.00,Acu-Link.com,2013-11-12 21:22:00,
2013-11-12 15:37:00,40.1,15.3,30.64,NW,315,3.7,-999.0,36,-99.99,,,0.00,Acu-Link.com,2013-11-12 21:37:00,
2013-11-12 15:53:00,39.4,15.3,30.64,WNW,292,3.2,-999.0,37,-99.99,,,0.00,Acu-Link.com,2013-11-12 21:53:00,
2013-11-12 16:08:00,37.6,14.9,30.65,NNW,337,3.2,-999.0,39,-99.99,,,0.00,Acu-Link.com,2013-11-12 22:08:00,
2013-11-12 16:23:00,37.4,15.3,30.65,WNW,292,3.7,-999.0,40,-99.99,,,0.00,Acu-Link.com,2013-11-12 22:23:00,
2013-11-12 16:39:00,36.0,14.6,30.65,WNW,292,3.2,-999.0,41,-99.99,,,0.00,Acu-Link.com,2013-11-12 22:39:00,
2013-11-12 16:54:00,34.3,15.2,30.64,North,0,1.7,-999.0,45,-99.99,,,0.00,Acu-Link.com,2013-11-12 22:54:00,
2013-11-12 17:09:00,31.6,15.1,30.64,NNE,22,0.0,-999.0,50,-99.99,,,0.00,Acu-Link.com,2013-11-12 23:09:00,
2013-11-12 17:24:00,30.6,15.5,30.64,WNW,292,1.1,-999.0,53,-99.99,,,0.00,Acu-Link.com,2013-11-12 23:24:00,
2013-11-12 17:40:00,29.1,15.8,30.64,West,270,0.0,-999.0,57,-99.99,,,0.00,Acu-Link.com,2013-11-12 23:40:00,
2013-11-12 17:55:00,27.5,15.5,30.64,North,0,0.0,-999.0,60,-99.99,,,0.00,Acu-Link.com,2013-11-12 23:55:00,
2013-11-12 18:10:00,27.1,15.8,30.63,NNE,22,0.0,-999.0,62,-99.99,,,0.00,Acu-Link.com,2013-11-13 00:10:00,
2013-11-12 18:26:00,25.9,15.4,30.63,WSW,247,0.0,-999.0,64,-99.99,,,0.00,Acu-Link.com,2013-11-13 00:26:00,
2013-11-12 18:41:00,25.0,15.6,30.63,North,0,0.0,-999.0,67,-99.99,,,0.00,Acu-Link.com,2013-11-13 00:41:00,
2013-11-12 18:57:00,23.9,15.6,30.63,WNW,292,0.0,-999.0,70,-99.99,,,0.00,Acu-Link.com,2013-11-13 00:57:00,
2013-11-12 19:12:00,23.7,15.7,30.63,WSW,247,0.0,-999.0,71,-99.99,,,0.00,Acu-Link.com,2013-11-13 01:12:00,
2013-11-12 19:27:00,23.7,16.3,30.63,SSW,202,0.0,-999.0,73,-99.99,,,0.00,Acu-Link.com,2013-11-13 01:27:00,
2013-11-12 19:43:00,22.8,15.2,30.63,SSW,202,0.0,-999.0,72,-99.99,,,0.00,Acu-Link.com,2013-11-13 01:43:00,
2013-11-12 19:58:00,23.0,15.7,30.62,SSW,202,0.0,-999.0,73,-99.99,,,0.00,Acu-Link.com,2013-11-13 01:58:00,
2013-11-12 20:13:00,22.1,15.7,30.63,SW,225,0.0,-999.0,76,-99.99,,,0.00,Acu-Link.com,2013-11-13 02:13:00,
2013-11-12 20:28:00,21.6,15.2,30.63,SSE,157,0.0,-999.0,76,-99.99,,,0.00,Acu-Link.com,2013-11-13 02:28:00,
2013-11-12 20:43:00,21.2,15.4,30.64,ESE,112,0.0,-999.0,78,-99.99,,,0.00,Acu-Link.com,2013-11-13 02:43:00,
2013-11-12 20:59:00,21.2,16.0,30.64,East,90,0.0,-999.0,80,-99.99,,,0.00,Acu-Link.com,2013-11-13 02:59:00,
2013-11-12 21:14:00,20.5,16.7,30.64,SE,135,0.0,-999.0,85,-99.99,,,0.00,Acu-Link.com,2013-11-13 03:14:00,
2013-11-12 21:29:00,20.5,17.0,30.64,South,180,0.0,-999.0,86,-99.99,,,0.00,Acu-Link.com,2013-11-13 03:29:00,
2013-11-12 21:45:00,19.0,15.5,30.64,ENE,67,0.0,-999.0,86,-99.99,,,0.00,Acu-Link.com,2013-11-13 03:45:00,
2013-11-12 22:00:00,18.9,15.4,30.65,North,0,0.0,-999.0,86,-99.99,,,0.00,Acu-Link.com,2013-11-13 04:00:00,
2013-11-12 22:15:00,18.1,14.4,30.64,East,90,0.0,-999.0,85,-99.99,,,0.00,Acu-Link.com,2013-11-13 04:15:00,
2013-11-12 22:30:00,17.8,14.6,30.64,ENE,67,0.0,-999.0,87,-99.99,,,0.00,Acu-Link.com,2013-11-13 04:30:00,
2013-11-12 22:46:00,18.1,15.2,30.64,South,180,0.0,-999.0,88,-99.99,,,0.00,Acu-Link.com,2013-11-13 04:46:00,
2013-11-12 23:01:00,18.1,15.2,30.64,North,0,0.0,-999.0,88,-99.99,,,0.00,Acu-Link.com,2013-11-13 05:01:00,
2013-11-12 23:16:00,17.6,14.7,30.63,WSW,247,0.0,-999.0,88,-99.99,,,0.00,Acu-Link.com,2013-11-13 05:16:00,
2013-11-12 23:31:00,16.2,13.5,30.64,WNW,292,0.0,-999.0,89,-99.99,,,0.00,Acu-Link.com,2013-11-13 05:31:00,
2013-11-12 23:46:00,16.7,13.8,30.63,WNW,292,0.0,-999.0,88,-99.99,,,0.00,Acu-Link.com,2013-11-13 05:46:00,